EW6996 Weather Reports


Display with metric or nautical units.
time (UTC)temp
F
wind
direction
speed
MPH
gust
MPH
rain 1hr
in
rain 24hr
in
rain mn
in
humidity
%
barometer
mb
20190119204004 44 131 0.0 8.0 0.07 0.07 0.07 36 1028.7
20190119203459 44 116 4.0 8.0 0.02 0.02 0.04 36 1028.7
20190119202959 44 105 3.0 10.0 0.00 0.00 0.00 37 1028.5
20190119202504 43 157 3.0 10.0 0.00 0.00 0.00 36 1028.3
20190119202000 43 112 2.0 8.0 0.00 0.00 0.00 37 1028.5
20190119201501 43 150 4.0 8.0 0.00 0.00 0.00 39 1028.6
20190119200958 43 141 4.0 10.0 0.00 0.00 0.00 38 1028.6
20190119200510 43 119 3.0 10.0 0.00 0.00 0.00 38 1028.8
20190119200000 43 130 5.0 10.0 0.00 0.00 0.00 39 1028.9
20190119195511 43 133 8.0 10.0 0.00 0.00 0.00 39 1028.9
20190119194958 42 144 3.0 10.0 0.00 0.00 0.00 39 1029.1
20190119194508 42 131 5.0 10.0 0.00 0.00 0.00 38 1029.2
20190119194007 42 108 0.0 10.0 0.00 0.00 0.00 39 1029.2
20190119193459 42 134 5.0 10.0 0.00 0.00 0.00 38 1029.2
20190119193001 42 125 4.0 10.0 0.00 0.00 0.00 37 1029.3
20190119192457 41 118 3.0 10.0 0.00 0.00 0.00 38 1029.4
20190119191957 41 153 6.0 10.0 0.00 0.00 0.00 37 1029.4
20190119191457 40 118 1.0 10.0 0.00 0.00 0.00 37 1029.7
20190119191003 40 128 2.0 8.0 0.00 0.00 0.00 38 1029.8
20190119190458 39 154 4.0 8.0 0.00 0.00 0.00 39 1029.9
20190119185956 38 118 5.0 8.0 0.00 0.00 0.00 40 1030.1
20190119185457 38 145 3.0 8.0 0.00 0.00 0.00 42 1030.2
20190119185010 37 136 4.0 8.0 0.00 0.00 0.00 43 1030.2
20190119184456 37 133 0.0 8.0 0.00 0.00 0.00 43 1030.4
20190119183957 36 139 0.0 0.0 0.00 0.00 0.00 45 1030.4
20190119183454 36 133 0.0 0.0 0.00 0.00 0.00 45 1030.5
20190119182957 35 131 0.0 0.0 0.00 0.00 0.00 41 1030.7
20190119182456 35 112 0.0 0.0 0.00 0.00 0.00 42 1030.8
20190119182007 34 132 0.0 0.0 0.00 0.00 0.00 45 1031.0
20190119181509 34 158 0.0 0.0 0.00 0.00 0.00 47 1031.1
20190119180956 34 140 0.0 0.0 0.00 0.00 0.00 47 1031.4
20190119180455 33 143 0.0 0.0 0.00 0.00 0.00 49 1031.6
20190119175955 33 135 0.0 0.0 0.00 0.00 0.00 47 1031.6
20190119175455 32 153 0.0 0.0 0.00 0.00 0.00 48 1031.8
20190119175001 32 99 0.0 0.0 0.00 0.00 0.00 49 1031.9
20190119174502 32 145 0.0 0.0 0.00 0.00 0.00 49 1032.0
20190119173956 31 137 0.0 0.0 0.00 0.00 0.00 48 1032.2
20190119173456 31 149 0.0 0.0 0.00 0.00 0.00 48 1032.2
20190119172955 31 106 0.0 0.0 0.00 0.00 0.00 48 1032.3
20190119172458 31 152 0.0 0.0 0.00 0.00 0.00 48 1032.2
20190119171955 30 139 0.0 0.0 0.00 0.00 0.00 47 1032.3
20190119171459 30 145 0.0 0.0 0.00 0.00 0.00 46 1032.3
20190119170955 30 141 0.0 0.0 0.00 0.00 0.00 47 1032.4
20190119170508 29 168 0.0 0.0 0.00 0.00 0.00 48 1032.2
20190119165955 29 179 0.0 0.0 0.00 0.00 0.00 49 1032.3
20190119165456 28 149 0.0 0.0 0.00 0.00 0.00 49 1032.2
20190119164955 28 149 0.0 0.0 0.00 0.00 0.00 51 1032.0
20190119164507 27 149 0.0 0.0 0.00 0.00 0.00 51 1031.9
20190119164001 27 145 0.0 0.0 0.00 0.00 0.00 48 1031.9
20190119163459 26 151 0.0 0.0 0.00 0.00 0.00 52 1031.8
20190119162955 26 146 0.0 0.0 0.00 0.00 0.00 48 1031.8
20190119162455 25 182 0.0 0.0 0.00 0.00 0.00 49 1031.7
20190119161955 24 127 0.0 0.0 0.00 0.00 0.00 51 1031.6
20190119161454 24 126 0.0 0.0 0.00 0.00 0.00 52 1031.6
20190119160956 23 183 0.0 0.0 0.00 0.00 0.00 53 1031.6
20190119160455 22 117 0.0 0.0 0.00 0.00 0.00 55 1031.8
20190119155955 22 140 0.0 0.0 0.00 0.00 0.00 55 1031.6
20190119155457 21 133 0.0 0.0 0.00 0.00 0.00 57 1031.8
20190119155000 21 127 0.0 0.0 0.00 0.00 0.00 58 1031.7
20190119154455 20 127 0.0 0.0 0.00 0.00 0.00 59 1031.9
20190119153954 19 155 0.0 0.0 0.00 0.00 0.00 61 1031.9
20190119153453 19 94 0.0 0.0 0.00 0.00 0.00 63 1031.9
20190119152951 18 125 0.0 0.0 0.00 0.00 0.00 64 1031.9
20190119152453 17 116 0.0 0.0 0.00 0.00 0.00 62 1031.9
20190119151954 17 106 0.0 0.0 0.00 0.00 0.00 63 1031.9
20190119151457 16 101 0.0 0.0 0.00 0.00 0.00 64 1032.0
20190119150957 16 116 0.0 0.0 0.00 0.00 0.00 67 1031.9
20190119150501 15 130 0.0 0.0 0.00 0.00 0.00 69 1032.0
20190119145954 15 120 0.0 0.0 0.00 0.00 0.00 69 1031.9
20190119145458 15 117 0.0 0.0 0.00 0.00 0.00 70 1031.9
20190119144954 15 122 0.0 0.0 0.00 0.00 0.00 71 1031.9
20190119144452 15 120 0.0 0.0 0.00 0.00 0.00 71 1031.9
20190119143955 15 101 0.0 0.0 0.00 0.00 0.00 71 1031.9
20190119143452 15 110 0.0 0.0 0.00 0.00 0.00 72 1031.9
20190119142953 15 113 0.0 0.0 0.00 0.00 0.00 73 1032.0
20190119142503 15 113 0.0 0.0 0.00 0.00 0.00 74 1032.0
20190119141954 15 105 0.0 0.0 0.00 0.00 0.00 74 1032.0
20190119141455 14 123 0.0 0.0 0.00 0.00 0.00 74 1032.0
20190119140957 14 105 0.0 0.0 0.00 0.00 0.00 74 1032.0
20190119140504 14 114 0.0 0.0 0.00 0.00 0.00 75 1032.2
20190119140004 13 114 0.0 0.0 0.00 0.00 0.00 76 1032.2
20190119135451 13 99 0.0 0.0 0.00 0.00 0.00 76 1032.0
20190119134955 12 99 0.0 0.0 0.00 0.00 0.00 77 1031.9
20190119134450 12 105 0.0 0.0 0.00 0.00 0.00 77 1031.9
20190119133950 12 101 0.0 0.0 0.00 0.00 0.00 77 1031.8
20190119133450 12 108 0.0 0.0 0.00 0.00 0.00 77 1031.7
20190119132955 12 129 0.0 0.0 0.00 0.00 0.00 77 1031.7
20190119132449 12 99 0.0 0.0 0.00 0.00 0.00 77 1031.8
20190119131952 13 122 0.0 0.0 0.00 0.00 0.00 77 1031.8
20190119131450 13 112 0.0 0.0 0.00 0.00 0.00 77 1031.9
20190119130955 13 125 0.0 0.0 0.00 0.00 0.00 77 1031.9
20190119130455 14 106 0.0 0.0 0.00 0.00 0.00 76 1032.0
20190119125949 14 117 0.0 0.0 0.00 0.00 0.00 76 1031.9
20190119125450 14 108 0.0 0.0 0.00 0.00 0.00 76 1031.9
20190119124949 14 106 0.0 0.0 0.00 0.00 0.00 76 1031.8
20190119124456 15 104 0.0 0.0 0.00 0.00 0.00 76 1031.8
20190119123949 15 107 0.0 0.0 0.00 0.00 0.00 75 1031.6
20190119123449 15 102 0.0 0.0 0.00 0.00 0.00 75 1031.4
20190119122950 15 103 0.0 0.0 0.00 0.00 0.00 74 1031.3
20190119122451 16 104 0.0 0.0 0.00 0.00 0.00 74 1031.3
20190119122000 16 107 0.0 0.0 0.00 0.00 0.00 75 1031.3
20190119121449 16 119 0.0 0.0 0.00 0.00 0.00 75 1031.3
20190119120953 16 106 0.0 0.0 0.00 0.00 0.00 75 1031.3
20190119120449 15 104 0.0 0.0 0.00 0.00 0.00 76 1031.3
20190119115949 15 130 0.0 0.0 0.00 0.00 0.00 76 1031.3
20190119115449 15 98 0.0 0.0 0.00 0.00 0.00 76 1031.3
20190119114954 15 109 0.0 0.0 0.00 0.00 0.00 77 1031.2
20190119114447 15 111 0.0 0.0 0.00 0.00 0.00 77 1031.2
20190119113949 15 110 0.0 0.0 0.00 0.00 0.00 77 1031.2
20190119113459 16 110 0.0 0.0 0.00 0.00 0.00 77 1031.3
20190119112948 16 101 0.0 0.0 0.00 0.00 0.00 78 1031.3
20190119112449 16 105 0.0 0.0 0.00 0.00 0.00 77 1031.3
20190119112000 16 107 0.0 0.0 0.00 0.00 0.00 77 1031.2
20190119111449 16 112 0.0 0.0 0.00 0.00 0.00 78 1031.3
20190119110948 17 106 0.0 0.0 0.00 0.00 0.00 78 1031.2
20190119110447 17 115 0.0 0.0 0.00 0.00 0.00 79 1031.2
20190119105948 17 103 0.0 0.0 0.00 0.00 0.00 79 1031.2
20190119105449 17 118 0.0 0.0 0.00 0.00 0.00 79 1031.3
20190119104949 18 100 0.0 0.0 0.00 0.00 0.00 79 1031.2
20190119104448 18 107 0.0 0.0 0.00 0.00 0.00 79 1031.2
20190119103950 18 108 0.0 0.0 0.00 0.00 0.00 79 1031.2
20190119103450 19 101 0.0 0.0 0.00 0.00 0.00 78 1031.2
20190119102951 19 109 0.0 0.0 0.00 0.00 0.00 77 1031.2
20190119102449 19 105 0.0 0.0 0.00 0.00 0.00 77 1031.3
20190119101948 20 100 0.0 0.0 0.00 0.00 0.00 77 1031.2
20190119101450 20 101 0.0 0.0 0.00 0.00 0.00 77 1031.2
20190119100947 20 101 0.0 0.0 0.00 0.00 0.00 82 1031.1
20190119100451 20 109 0.0 0.0 0.00 0.00 0.00 82 1031.2
20190119095947 19 115 0.0 0.0 0.00 0.00 0.00 83 1031.2
20190119095446 19 117 0.0 0.0 0.00 0.00 0.00 84 1031.2
20190119094947 19 116 0.0 0.0 0.00 0.00 0.00 84 1031.1
20190119094447 19 113 0.0 0.0 0.00 0.00 0.00 84 1031.0
20190119093946 19 115 0.0 0.0 0.00 0.00 0.00 80 1031.0
20190119093446 19 113 0.0 0.0 0.00 0.00 0.00 81 1031.0
20190119092946 19 104 0.0 0.0 0.00 0.00 0.00 80 1031.0
20190119092448 19 100 0.0 0.0 0.00 0.00 0.00 80 1031.0
20190119091946 19 106 0.0 0.0 0.00 0.00 0.00 81 1031.0
20190119091444 19 103 0.0 0.0 0.00 0.00 0.00 82 1031.0
20190119090944 20 104 0.0 0.0 0.00 0.00 0.00 87 1030.8
20190119090458 20 105 0.0 0.0 0.00 0.00 0.00 88 1030.8
20190119085946 20 105 0.0 0.0 0.00 0.00 0.00 89 1030.8
20190119085444 20 99 0.0 0.0 0.00 0.00 0.00 85 1030.8
20190119084944 20 100 0.0 0.0 0.00 0.00 0.00 89 1030.7
20190119084446 19 111 0.0 0.0 0.00 0.00 0.00 91 1030.7
20190119083943 19 116 0.0 0.0 0.00 0.00 0.00 91 1030.7
20190119083444 19 114 0.0 0.0 0.00 0.00 0.00 92 1030.7
20190119082944 19 106 0.0 0.0 0.00 0.00 0.00 88 1030.7
20190119082443 19 99 0.0 0.0 0.00 0.00 0.00 88 1030.7
20190119081942 19 106 0.0 0.0 0.00 0.00 0.00 88 1030.7
20190119081443 20 103 0.0 0.0 0.00 0.00 0.00 88 1030.7
20190119080943 20 102 0.0 0.0 0.00 0.00 0.00 88 1030.7
20190119080442 19 100 0.0 0.0 0.00 0.00 0.00 88 1030.7
20190119075942 19 91 0.0 0.0 0.00 0.00 0.00 93 1030.7
20190119075445 19 100 0.0 0.0 0.00 0.00 0.00 94 1030.7
20190119074943 19 126 0.0 0.0 0.00 0.00 0.00 94 1030.8
20190119074442 19 115 0.0 0.0 0.00 0.00 0.00 90 1030.8
20190119073942 19 108 0.0 0.0 0.00 0.00 0.00 89 1031.0
20190119073441 19 107 0.0 0.0 0.00 0.00 0.00 90 1031.0
20190119072942 19 106 0.0 0.0 0.00 0.00 0.00 90 1031.0
20190119072442 19 105 0.0 0.0 0.00 0.00 0.00 90 1030.8
20190119071942 19 103 0.0 0.0 0.00 0.00 0.00 90 1030.8
20190119071442 19 100 0.0 0.0 0.00 0.00 0.00 90 1031.0
20190119070942 20 114 0.0 0.0 0.00 0.00 0.00 90 1030.8
20190119070441 20 101 0.0 0.0 0.00 0.00 0.00 90 1031.0
20190119065940 20 109 0.0 0.0 0.00 0.00 0.00 91 1031.0
20190119065440 21 109 0.0 0.0 0.00 0.00 0.00 91 1031.0
20190119064941 21 100 0.0 0.0 0.00 0.00 0.00 95 1030.8
20190119064453 20 125 0.0 0.0 0.00 0.00 0.00 95 1030.8
20190119063954 20 110 0.0 0.0 0.00 0.00 0.00 96 1031.0
20190119063440 20 107 0.0 0.0 0.00 0.00 0.00 95 1030.7
20190119062940 20 111 0.0 0.0 0.00 0.00 0.00 95 1030.8
20190119062440 20 138 0.0 0.0 0.00 0.00 0.00 95 1030.8
20190119061940 20 131 0.0 0.0 0.00 0.00 0.00 95 1031.0
20190119061440 21 124 0.0 0.0 0.00 0.00 0.00 95 1031.0
20190119060939 21 104 0.0 0.0 0.00 0.00 0.00 95 1030.8
20190119060439 22 106 0.0 0.0 0.00 0.00 0.00 95 1031.0
20190119055941 22 99 0.0 0.0 0.00 0.00 0.00 95 1030.8
20190119055439 22 108 0.0 0.0 0.00 0.00 0.00 95 1030.7
20190119054952 22 118 0.0 0.0 0.00 0.00 0.00 95 1030.7
20190119054440 22 105 0.0 0.0 0.00 0.00 0.00 95 1030.6
20190119053939 22 123 0.0 0.0 0.00 0.00 0.00 95 1030.5
20190119053439 22 106 0.0 0.0 0.00 0.00 0.00 95 1030.5
20190119052939 22 113 0.0 0.0 0.00 0.00 0.00 94 1030.5
20190119052439 22 111 0.0 0.0 0.00 0.00 0.00 94 1030.4
20190119051939 22 111 0.0 0.0 0.00 0.00 0.00 94 1030.2
20190119051439 22 120 0.0 0.0 0.00 0.00 0.00 94 1030.2
20190119050939 22 110 0.0 0.0 0.00 0.00 0.00 94 1030.1
20190119050438 22 121 0.0 0.0 0.00 0.00 0.00 94 1030.1
20190119045938 22 101 0.0 0.0 0.00 0.00 0.00 94 1030.1
20190119045438 23 117 0.0 0.0 0.00 0.00 0.00 94 1030.1
20190119044938 23 116 0.0 0.0 0.00 0.00 0.00 94 1030.0
20190119044437 23 100 0.0 0.0 0.00 0.00 0.00 94 1030.0
20190119043938 24 119 0.0 0.0 0.00 0.00 0.00 94 1030.0
20190119043437 24 105 0.0 0.0 0.00 0.00 0.00 94 1030.0
20190119042938 25 95 0.0 0.0 0.00 0.00 0.00 94 1029.9
20190119042438 25 102 0.0 0.0 0.00 0.00 0.00 94 1029.8
20190119041938 25 95 0.0 0.0 0.00 0.00 0.00 94 1029.8
20190119041437 25 105 0.0 0.0 0.00 0.00 0.00 93 1029.4
20190119040937 25 118 0.0 0.0 0.00 0.00 0.00 93 1029.4
20190119040436 25 103 0.0 0.0 0.00 0.00 0.00 93 1029.4
20190119035937 25 116 0.0 0.0 0.00 0.00 0.00 93 1029.4
20190119035438 25 112 0.0 0.0 0.00 0.00 0.00 93 1029.4
20190119034949 25 131 0.0 0.0 0.00 0.00 0.00 94 1029.3
20190119034436 25 127 0.0 0.0 0.00 0.00 0.00 94 1029.3
20190119033936 25 114 0.0 0.0 0.00 0.00 0.00 93 1029.3
20190119033438 25 107 0.0 0.0 0.00 0.00 0.00 93 1029.4
20190119032936 25 102 0.0 0.0 0.00 0.00 0.00 93 1029.2
20190119032436 26 105 0.0 0.0 0.00 0.00 0.00 93 1029.2
20190119031936 26 101 0.0 0.0 0.00 0.00 0.00 93 1029.1
20190119031437 26 100 0.0 0.0 0.00 0.00 0.00 93 1029.1
20190119030935 26 101 0.0 0.0 0.00 0.00 0.00 92 1029.2
20190119030436 27 101 0.0 0.0 0.00 0.00 0.00 92 1029.1
20190119025935 27 101 0.0 0.0 0.00 0.00 0.00 92 1029.1
20190119025437 27 97 0.0 0.0 0.00 0.00 0.00 92 1028.9
20190119024936 27 100 0.0 0.0 0.00 0.00 0.00 91 1028.9
20190119024435 27 109 0.0 0.0 0.00 0.00 0.00 91 1028.8
20190119023936 27 115 0.0 0.0 0.00 0.00 0.00 90 1028.7
20190119023449 27 99 0.0 0.0 0.00 0.00 0.00 90 1028.7
20190119022935 27 111 0.0 0.0 0.00 0.00 0.00 90 1028.6
20190119022434 28 100 0.0 0.0 0.00 0.00 0.00 89 1028.6
20190119021934 28 100 0.0 0.0 0.00 0.00 0.00 89 1028.5
20190119021435 28 102 0.0 0.0 0.00 0.00 0.00 88 1028.5
20190119020936 28 100 0.0 0.0 0.00 0.00 0.00 88 1028.3
20190119020447 29 100 0.0 0.0 0.00 0.00 0.00 88 1028.3
20190119015935 29 116 0.0 0.0 0.00 0.00 0.00 92 1028.2
20190119015435 29 100 0.0 0.0 0.00 0.00 0.00 87 1028.2
20190119014934 29 97 0.0 0.0 0.00 0.00 0.00 91 1028.1
20190119014434 29 98 0.0 0.0 0.00 0.00 0.00 91 1028.0
20190119013934 30 109 0.0 0.0 0.00 0.00 0.00 91 1027.7
20190119013434 30 100 0.0 0.0 0.00 0.00 0.00 91 1027.7
20190119012933 30 99 0.0 0.0 0.00 0.00 0.00 91 1027.7
20190119012434 30 99 0.0 0.0 0.00 0.00 0.00 92 1027.5
20190119011934 30 84 0.0 0.0 0.00 0.00 0.00 92 1027.6
20190119011434 30 80 0.0 0.0 0.00 0.00 0.00 91 1027.5
20190119010934 30 99 0.0 0.0 0.00 0.00 0.00 91 1027.5
20190119010433 30 87 0.0 0.0 0.00 0.00 0.00 91 1027.3
20190119005933 30 54 0.0 0.0 0.00 0.00 0.00 91 1027.1
20190119005433 30 46 0.0 0.0 0.00 0.00 0.00 91 1027.0
20190119004933 30 82 0.0 0.0 0.00 0.00 0.00 91 1026.9
20190119004433 30 250 0.0 0.0 0.00 0.00 0.00 91 1026.9
20190118225931 32 25 0.0 0.0 0.00 0.00 0.00 88 1025.1
20190118225444 32 43 0.0 0.0 0.00 0.00 0.00 89 1025.0
20190118224931 32 0 0.0 0.0 0.00 0.00 0.00 89 1025.0
20190118224430 32 83 0.0 0.0 0.00 0.00 0.00 90 1025.0
20190118224133 32 39 0.0 0.0 0.00 0.00 0.00 91 1024.9
20190118223430 32 13 0.0 0.0 0.00 0.00 0.00 91 1024.8
20190118222930 32 309 0.0 0.0 0.00 0.00 0.00 91 1024.5
20190118222430 32 342 0.0 0.0 0.00 0.00 0.00 92 1024.5
20190118221929 32 344 0.0 0.0 0.00 0.00 0.00 93 1024.4
20190118221430 33 356 0.0 0.0 0.00 0.00 0.00 94 1024.4
20190118220930 33 46 0.0 0.0 0.00 0.00 0.00 96 1024.3
20190118220429 33 22 0.0 0.0 0.00 0.00 0.00 97 1024.2
20190118215930 33 30 0.0 0.0 0.00 0.00 0.00 99 1024.0
20190118215429 33 0 0.0 0.0 0.00 0.00 0.00 99 1023.8
20190118214929 33 50 0.0 0.0 0.00 0.00 0.00 99 1023.7
20190118214429 33 75 0.0 0.0 0.00 0.00 0.00 99 1023.5
20190118213929 33 19 0.0 0.0 0.00 0.00 0.00 99 1023.3
20190118213429 33 25 0.0 0.0 0.00 0.00 0.00 99 1023.2
20190118212929 33 17 0.0 0.0 0.00 0.00 0.00 99 1023.1
20190118212430 33 87 0.0 0.0 0.00 0.00 0.00 99 1022.9
20190118211929 33 43 0.0 0.0 0.00 0.00 0.00 98 1022.9
20190118211428 33 354 0.0 0.0 0.00 0.00 0.00 99 1022.7
20190118210941 33 39 0.0 0.0 0.00 0.00 0.00 98 1022.5
20190118210429 33 7 0.0 0.0 0.00 0.00 0.00 99 1022.4
20190118205941 33 31 0.0 0.0 0.00 0.00 0.00 99 1022.3
20190118205428 33 342 0.0 0.0 0.00 0.00 0.00 99 1022.1
20190118204928 33 10 0.0 0.0 0.00 0.00 0.00 99 1022.0
20190118204428 33 26 0.0 0.0 0.00 0.00 0.00 99 1021.9